Regional Weather Roundup
Issued by NWS

Current Version | Previous Version | Text Only | Print | Product List | Glossary On
Versions: 1 2 3 4 5 6 7 8 9 10 11 12 13 14 15 16 17 18 19 20 21 22 23 24 25 26 27 28 29 30 31 32 33 34 35 36 37 38 39 40 41 42 43 44 45 46 47 48 49 50
000
ASUS44 KOUN 060010
RWROK

WEATHER ROUNDUP FOR OKLAHOMA
NATIONAL WEATHER SERVICE NORMAN OK
600 PM CST SUN DEC 05 2021

NOTE: "FAIR" INDICATES FEW OR NO CLOUDS BELOW 12,000 FEET WITH NO
      SIGNIFICANT WEATHER AND/OR OBSTRUCTIONS TO VISIBILITY.

OKZ001>007-009>012-014-015-017-060100-
NORTHWEST OKLAHOMA AND THE PANHANDLE

CITY           SKY/WX    TMP DP  RH WIND       PRES   REMARKS
GAGE           CLEAR     58  26  29 NE8       29.71R
6HR MIN TEMP:  58; 6HR MAX TEMP:  75;

GUYMON         CLEAR     62  26  25 E10       29.73R
ENID/WOODRING  PTCLDY    61  37  41 N10       29.69R
$$

OKZ016-021>023-033>039-044-045-060100-
SOUTHWEST OKLAHOMA

CITY           SKY/WX    TMP DP  RH WIND       PRES   REMARKS
LAWTON/REGL    CLEAR     69  53  56 S8        29.70R
6HR MIN TEMP:  69; 6HR MAX TEMP:  78;

LAWTON/FT SILL CLEAR     70  53  53 S10       29.68R
FREDERICK      CLEAR     69  44  40 S12       29.66S
CLINTON        CLEAR     62  27  26 S8        29.69R
HOBART         CLEAR     69  41  36 S16       29.67R
ALTUS AFB      CLEAR     68  42  39 S13       29.66R
$$

OKZ018>020-024>031-060100-
CENTRAL OKLAHOMA

CITY           SKY/WX    TMP DP  RH WIND       PRES   REMARKS
OKLAHOMA CITY  CLEAR     65  53  65 S12       29.70R
6HR MIN TEMP:  65; 6HR MAX TEMP:  75;

OKC/WILEY POST CLEAR     69  52  54 S13       29.69R
STILLWATER     CLEAR     62  42  47 NW3       29.69R
GUTHRIE        CLEAR     68  48  48 S9        29.67R
$$

OKZ008-013-054>072-060100-
NORTHEAST OKLAHOMA

CITY           SKY/WX    TMP DP  RH WIND       PRES   REMARKS
TULSA          CLEAR     69  59  70 S16       29.67R
6HR MIN TEMP:  68; 6HR MAX TEMP:  76;

TULSA/JONES    CLEAR     68  59  73 S8        29.69R
PONCA CITY     CLEAR     58  37  45 N5        29.70R
BARTLESVILLE   CLEAR     56  43  61 SW3       29.70R
MUSKOGEE       CLOUDY    69  63  81 S7        29.73R
$$

OKZ032-040>043-046>053-073>077-060100-
SOUTH CENTRAL/SOUTHEAST OKLAHOMA

CITY           SKY/WX    TMP DP  RH WIND       PRES   REMARKS
ARDMORE/DWNTWN CLEAR     71  61  70 S9        29.74S
MCALESTER      CLEAR     70  62  76 S10G23    29.73S
$$




USA.gov is the U.S. government's official web portal to all federal, state and local government web resources and services.